Regional Weather Roundup
Issued by NWS State College, PA

Home | Current Version | Previous Version | Graphics & Text | Print | Product List | Glossary On
Versions: 1 2 3 4 5 6 7 8 9 10 11 12 13 14 15 16 17 18 19 20 21 22 23 24 25 26 27 28 29 30 31 32 33 34 35 36 37 38 39 40 41 42 43 44 45 46 47 48 49 50
000
ASUS41 KCTP 271903
RWRCTP

REGIONAL WEATHER ROUNDUP
NATIONAL WEATHER SERVICE STATE COLLEGE PA
300 PM EDT THU JUL 27 2017

Note: "fair" indicates few or no clouds below 12,000 feet with no
significant weather and/or obstructions to visibility.

* = STATION THAT DOES NOT REPORT PRECIPITATION /E.G. RAIN...SNOW...ETC/
    THUNDER OR FOG.

PAZ002>004-007>009-013>016-020>023-029>032-272000-
WESTERN PENNSYLVANIA

CITY           SKY/WX    TMP DP  RH WIND       PRES   REMARKS
ERIE           CLOUDY    78  68  71 N7        29.92F
MEADVILLE      MOSUNNY   79  61  53 CALM      29.94F
FRANKLIN*        N/A    N/A N/A N/A MISG        N/A
NEW CASTLE     FAIR      83  64  52 VRB7      29.94F
BEAVER COUNTY  SUNNY     81  63  54 W3        29.94F
BUTLER*        CLOUDY    82  64  54 NW6       29.94F
PITTSBURGH INT CLOUDY    80  65  59 SW6       29.94F
PITTSBURGH     CLOUDY    81  63  54 VRB6      29.94F
INDIANA*       MOSUNNY   81  64  57 VRB6G12   29.97S
LATROBE        PTSUNNY   81  66  61 W5        29.95F
WASHINGTON CO* CLOUDY    79  66  65 CALM      29.95S
$$

PAZ004>006-010>012-017>019-024>028-033>037-041-042-045-046-049>053-272000-
CENTRAL PENNSYLVANIA

CITY           SKY/WX    TMP DP  RH WIND       PRES   REMARKS
BRADFORD       PTSUNNY   78  61  55 N6        29.97F
DUBOIS         SUNNY     79  59  50 W9        29.96S
CLEARFIELD     MOSUNNY   83  57  41 W6        29.94F
JOHNSTOWN      MOSUNNY   79  62  56 W10       29.98F
ALTOONA        MOSUNNY   80  68  66 S3        29.95F
STATE COLLEGE  MOSUNNY   81  66  61 SE5       29.93F
WILLIAMSPORT   CLOUDY    80  68  66 E5        29.91F
SELINSGROVE    CLOUDY    80  70  71 VRB6      29.92F
FT INDIANTOWN  CLOUDY    75  70  85 CALM      29.94F
CAPITAL CITY   CLOUDY    80  69  69 E6        29.92F
HARRISBURG     CLOUDY    79  71  76 VRB3      29.92F
YORK           CLOUDY    81  72  74 CALM      29.92F
$$

PAZ038>040-043-044-047-048-054-055-060>062-067>071-272000-
EASTERN PENNSYLVANIA

CITY           SKY/WX    TMP DP  RH WIND       PRES   REMARKS
SCRANTON       MOSUNNY   77  66  68 SW8       29.96F
MOUNT POCONO   CLOUDY    71  66  84 W10       30.00S
ALLENTOWN      CLOUDY    75  67  76 CALM      29.95F
QUAKERTOWN*    CLOUDY    75  70  83 CALM      29.96F
READING        CLOUDY    77  71  82 CALM      29.93F
LANCASTER      CLOUDY    79  71  76 CALM      29.93F
COATESVILLE    CLOUDY    77  72  83 CALM      29.96F
POTTSTOWN      CLOUDY    75  70  84 CALM      29.96F
BLUE BELL      CLOUDY    73  70  88 S3        29.95F
DOYLESTOWN       N/A    N/A N/A N/A MISG      29.94F
WILLOW GROVE   NOT AVBL
NORTH PHILA    CLOUDY    79  69  71 S3        29.95F
PHILADELPHIA   CLOUDY    79  70  74 S7        29.93F
$$




USA.gov is the U.S. government's official web portal to all federal, state and local government web resources and services.